• In Uzbekistan
  • List of Countries
  • For 7 days
  • Water Temperature
  • Satellite Maps
  • Weather Map
  • Weather Widgets
  • user-avatar
    Login

    Hourly Weather Zatwarnica

    Today, 26 April, Thursday

    Time Temperature Precipitation Wind Pressure Humidity
    00:00 +13°C° 0.2 mm 3 mps 712 mmHg 87%
    01:00 +13°C° 0.2 mm 2 mps 712 mmHg 90%
    02:00 +13°C° 0.2 mm 2 mps 713 mmHg 92%
    03:00 +12°C° 0 mm 1 mps 713 mmHg 93%
    04:00 +11°C° 0 mm 1 mps 713 mmHg 94%
    05:00 +11°C° 0 mm 1 mps 713 mmHg 95%
    06:00 +12°C° 0 mm 1 mps 713 mmHg 90%
    07:00 +13°C° 0 mm 1 mps 714 mmHg 86%
    08:00 +14°C° 0 mm 1 mps 714 mmHg 81%
    09:00 +15°C° 0.1 mm 1 mps 714 mmHg 77%
    10:00 +16°C° 0.1 mm 1 mps 714 mmHg 73%
    11:00 +18°C° 0.1 mm 1 mps 714 mmHg 68%
    12:00 +16°C° 0.7 mm 1 mps 714 mmHg 73%
    13:00 +15°C° 0.7 mm 1 mps 714 mmHg 77%
    14:00 +14°C° 0.7 mm 1 mps 714 mmHg 82%
    15:00 +14°C° 0.3 mm 1 mps 714 mmHg 82%
    16:00 +14°C° 0.3 mm 1 mps 713 mmHg 83%
    17:00 +14°C° 0.3 mm 1 mps 713 mmHg 84%
    18:00 +13°C° 0.1 mm 1 mps 714 mmHg 85%
    19:00 +12°C° 0.1 mm 1 mps 714 mmHg 87%
    20:00 +12°C° 0.1 mm 1 mps 714 mmHg 88%
    21:00 +11°C° 0 mm 1 mps 714 mmHg 87%
    22:00 +10°C° 0 mm 2 mps 715 mmHg 86%
    23:00 +9°C° 0 mm 2 mps 715 mmHg 85%

    Tomorrow, 27 April, Friday

    Time Temperature Precipitation Wind Pressure Humidity
    00:00 +8°C° 0 mm 2 mps 715 mmHg 87%
    01:00 +7°C° 0 mm 2 mps 716 mmHg 88%
    02:00 +7°C° 0 mm 2 mps 716 mmHg 89%
    03:00 +6°C° 0 mm 2 mps 716 mmHg 90%
    04:00 +6°C° 0 mm 1 mps 716 mmHg 91%
    05:00 +5°C° 0 mm 1 mps 716 mmHg 92%
    06:00 +7°C° 0 mm 1 mps 717 mmHg 86%
    07:00 +7°C° 0 mm 2 mps 717 mmHg 80%
    08:00 +8°C° 0 mm 2 mps 718 mmHg 74%
    09:00 +10°C° 0 mm 2 mps 718 mmHg 65%
    10:00 +13°C° 0 mm 1 mps 718 mmHg 56%
    11:00 +15°C° 0 mm 1 mps 718 mmHg 47%
    12:00 +16°C° 0 mm 1 mps 718 mmHg 44%
    13:00 +16°C° 0 mm 1 mps 718 mmHg 41%
    14:00 +18°C° 0 mm 1 mps 718 mmHg 38%
    15:00 +18°C° 0 mm 1 mps 718 mmHg 40%
    16:00 +18°C° 0 mm 1 mps 717 mmHg 41%
    17:00 +16°C° 0 mm 2 mps 717 mmHg 42%
    18:00 +14°C° 0 mm 1 mps 717 mmHg 51%
    19:00 +12°C° 0 mm 1 mps 717 mmHg 59%
    20:00 +10°C° 0 mm 1 mps 717 mmHg 68%
    21:00 +9°C° 0 mm 1 mps 717 mmHg 70%
    22:00 +9°C° 0 mm 1 mps 717 mmHg 72%
    23:00 +7°C° 0 mm 2 mps 717 mmHg 75%

    Day after tomorrow, 28 April, Saturday

    Time Temperature Precipitation Wind Pressure Humidity
    00:00 +7°C° 0 mm 2 mps 717 mmHg 74%
    01:00 +7°C° 0 mm 2 mps 717 mmHg 74%
    02:00 +6°C° 0 mm 2 mps 716 mmHg 74%
    03:00 +6°C° 0 mm 2 mps 716 mmHg 72%
    04:00 +6°C° 0 mm 2 mps 716 mmHg 70%
    05:00 +6°C° 0 mm 2 mps 716 mmHg 68%
    06:00 +8°C° 0 mm 2 mps 716 mmHg 64%
    07:00 +10°C° 0 mm 2 mps 716 mmHg 60%
    08:00 +14°C° 0 mm 2 mps 717 mmHg 56%
    09:00 +16°C° 0 mm 2 mps 717 mmHg 53%
    10:00 +18°C° 0 mm 3 mps 717 mmHg 49%
    11:00 +20°C° 0 mm 3 mps 717 mmHg 46%
    12:00 +20°C° 0 mm 4 mps 717 mmHg 46%
    13:00 +21°C° 0 mm 4 mps 717 mmHg 45%
    14:00 +22°C° 0 mm 4 mps 717 mmHg 45%
    15:00 +22°C° 0 mm 4 mps 716 mmHg 48%
    16:00 +21°C° 0 mm 3 mps 716 mmHg 51%
    17:00 +21°C° 0 mm 3 mps 716 mmHg 54%
    18:00 +19°C° 0 mm 3 mps 716 mmHg 63%
    19:00 +17°C° 0 mm 2 mps 716 mmHg 72%
    20:00 +15°C° 0 mm 2 mps 716 mmHg 81%
    21:00 +15°C° 0.1 mm 2 mps 716 mmHg 84%
    22:00 +15°C° 0.1 mm 2 mps 716 mmHg 87%
    23:00 +14°C° 0.1 mm 2 mps 716 mmHg 89%

    29 April, Sunday

    Time Temperature Precipitation Wind Pressure Humidity
    00:00 +14°C° 0.1 mm 2 mps 716 mmHg 90%
    01:00 +14°C° 0.1 mm 2 mps 716 mmHg 90%
    02:00 +14°C° 0.1 mm 2 mps 716 mmHg 90%
    03:00 +14°C° 0.1 mm 2 mps 716 mmHg 90%
    04:00 +14°C° 0.1 mm 2 mps 716 mmHg 90%
    05:00 +14°C° 0.1 mm 2 mps 716 mmHg 90%
    06:00 +15°C° 0.1 mm 2 mps 716 mmHg 86%
    07:00 +17°C° 0.1 mm 2 mps 716 mmHg 81%
    08:00 +18°C° 0.1 mm 2 mps 716 mmHg 76%
    09:00 +20°C° 0 mm 2 mps 716 mmHg 68%
    10:00 +21°C° 0 mm 2 mps 717 mmHg 60%
    11:00 +24°C° 0 mm 3 mps 717 mmHg 53%
    12:00 +25°C° 0 mm 3 mps 716 mmHg 50%
    13:00 +26°C° 0 mm 3 mps 716 mmHg 47%
    14:00 +26°C° 0 mm 3 mps 716 mmHg 45%
    15:00 +26°C° 0 mm 3 mps 715 mmHg 47%
    16:00 +26°C° 0 mm 3 mps 715 mmHg 49%
    17:00 +25°C° 0 mm 3 mps 715 mmHg 51%
    18:00 +23°C° 0 mm 2 mps 714 mmHg 60%
    19:00 +20°C° 0 mm 2 mps 714 mmHg 70%
    20:00 +18°C° 0 mm 1 mps 714 mmHg 79%
    21:00 +16°C° 0 mm 2 mps 714 mmHg 80%
    22:00 +16°C° 0 mm 2 mps 713 mmHg 80%
    23:00 +15°C° 0 mm 2 mps 713 mmHg 81%

    30 April, Monday

    Time Temperature Precipitation Wind Pressure Humidity
    00:00 +15°C° 0 mm 2 mps 713 mmHg 79%
    01:00 +15°C° 0 mm 2 mps 713 mmHg 77%
    02:00 +14°C° 0 mm 2 mps 713 mmHg 75%
    03:00 +14°C° 0 mm 2 mps 713 mmHg 75%
    04:00 +13°C° 0 mm 2 mps 713 mmHg 76%
    05:00 +13°C° 0 mm 2 mps 713 mmHg 76%
    06:00 +14°C° 0 mm 3 mps 713 mmHg 71%
    07:00 +16°C° 0 mm 3 mps 713 mmHg 65%
    08:00 +18°C° 0 mm 3 mps 713 mmHg 59%
    09:00 +19°C° 0 mm 3 mps 713 mmHg 54%
    10:00 +21°C° 0 mm 4 mps 713 mmHg 49%
    11:00 +22°C° 0 mm 4 mps 714 mmHg 43%
    12:00 +23°C° 0 mm 4 mps 713 mmHg 43%
    13:00 +23°C° 0 mm 4 mps 713 mmHg 42%
    14:00 +25°C° 0 mm 4 mps 713 mmHg 42%
    15:00 +25°C° 0 mm 4 mps 713 mmHg 46%
    16:00 +23°C° 0 mm 4 mps 713 mmHg 50%
    17:00 +24°C° 0 mm 3 mps 713 mmHg 54%
    18:00 +21°C° 0 mm 3 mps 713 mmHg 61%
    19:00 +19°C° 0 mm 3 mps 713 mmHg 69%
    20:00 +17°C° 0 mm 2 mps 713 mmHg 76%
    21:00 +17°C° 0 mm 2 mps 713 mmHg 79%
    22:00 +16°C° 0 mm 2 mps 713 mmHg 83%
    23:00 +15°C° 0 mm 1 mps 713 mmHg 86%

    1 May, Tuesday

    Time Temperature Precipitation Wind Pressure Humidity
    00:00 +15°C° 0.1 mm 1 mps 713 mmHg 87%
    01:00 +14°C° 0.1 mm 1 mps 714 mmHg 89%
    02:00 +14°C° 0.1 mm 1 mps 714 mmHg 90%
    03:00 +14°C° 0.2 mm 2 mps 715 mmHg 91%
    04:00 +14°C° 0.2 mm 2 mps 715 mmHg 93%
    05:00 +14°C° 0.2 mm 2 mps 715 mmHg 94%
    06:00 +14°C° 0.1 mm 2 mps 716 mmHg 92%
    07:00 +14°C° 0.1 mm 2 mps 716 mmHg 90%
    08:00 +14°C° 0.1 mm 2 mps 716 mmHg 89%
    09:00 +16°C° 0 mm 2 mps 716 mmHg 83%
    10:00 +17°C° 0 mm 2 mps 717 mmHg 78%
    11:00 +18°C° 0 mm 2 mps 717 mmHg 72%
    12:00 +19°C° 0.1 mm 2 mps 717 mmHg 70%
    13:00 +19°C° 0.1 mm 2 mps 716 mmHg 68%
    14:00 +20°C° 0.1 mm 2 mps 716 mmHg 65%
    15:00 +20°C° 0 mm 2 mps 716 mmHg 66%
    16:00 +20°C° 0 mm 2 mps 716 mmHg 67%
    17:00 +20°C° 0 mm 2 mps 716 mmHg 67%
    18:00 +18°C° 0 mm 2 mps 715 mmHg 75%
    19:00 +17°C° 0 mm 2 mps 715 mmHg 83%
    20:00 +15°C° 0 mm 2 mps 715 mmHg 91%
    21:00 +14°C° 0 mm 2 mps 715 mmHg 92%
    22:00 +14°C° 0 mm 1 mps 715 mmHg 94%
    23:00 +13°C° 0 mm 1 mps 714 mmHg 95%
    Show more